This is the latest recevied weather packets stored in our database for station/object KB3GVC-13. If no packets are shown the sender has not sent any weather packets the latest 1 day(s).
| Time | Temp. | Humidity | Pressure | Rain* | Wind** | Luminosity | Snow |
|---|---|---|---|---|---|---|---|
| 1778017902 | 27.78° C | 38% | 1010 hPa | 0 mm | 2.68 m/s, 111° | - | - |
| 1778017599 | 27.78° C | 38% | 1010.3 hPa | 0 mm | 0.89 m/s, 236° | - | - |
| 1778017296 | 27.78° C | 39% | 1010 hPa | 0 mm | 0.89 m/s, 162° | - | - |
| 1778016994 | 27.78° C | 38% | 1009.8 hPa | 0 mm | 1.79 m/s, 199° | - | - |
| 1778016690 | 28.33° C | 38% | 1009.7 hPa | 0 mm | 0.89 m/s, 145° | - | - |
| 1778016386 | 28.33° C | 37% | 1010.2 hPa | 0 mm | 0.89 m/s, 192° | - | - |
| 1778016085 | 27.78° C | 37% | 1010.2 hPa | 0 mm | 0.89 m/s, 195° | - | - |
| 1778015781 | 28.33° C | 37% | 1010.1 hPa | 0 mm | 2.68 m/s, 135° | - | - |
| 1778015478 | 27.78° C | 37% | 1010.1 hPa | 0 mm | 1.79 m/s, 291° | - | - |
| 1778015174 | 27.78° C | 39% | 1010 hPa | 0 mm | 1.34 m/s, 143° | - | - |
| 1778014871 | 27.78° C | 37% | 1010.1 hPa | 0 mm | 1.34 m/s, 165° | - | - |
| 1778014569 | 27.78° C | 37% | 1010.1 hPa | 0 mm | 1.79 m/s, 140° | - | - |
| 1778014267 | 28.33° C | 36% | 1010 hPa | 0 mm | 1.34 m/s, 181° | - | - |
| 1778013964 | 28.33° C | 36% | 1009.9 hPa | 0 mm | 1.79 m/s, 167° | - | - |
| 1778013661 | 27.78° C | 36% | 1010.1 hPa | 0 mm | 1.79 m/s, 162° | - | - |
| 1778013357 | 28.33° C | 36% | 1010.1 hPa | 0 mm | 1.79 m/s, 122° | - | - |
| 1778013055 | 27.78° C | 35% | 1010.3 hPa | 0 mm | 3.58 m/s, 100° | - | - |
| 1778012751 | 27.78° C | 36% | 1009.9 hPa | 0 mm | 1.34 m/s, 163° | - | - |
| 1778012447 | 28.33° C | 35% | 1010.2 hPa | 0 mm | 4.02 m/s, 155° | - | - |
| 1778012144 | 28.33° C | 35% | 1010.1 hPa | 0 mm | 3.58 m/s, 66° | - | - |
| 1778011842 | 28.33° C | 35% | 1010.2 hPa | 0 mm | 2.68 m/s, 152° | - | - |
| 1778011539 | 28.33° C | 36% | 1010.1 hPa | 0 mm | 1.34 m/s, 185° | - | - |
| 1778011236 | 28.33° C | 34% | 1010.4 hPa | 0 mm | 1.79 m/s, 234° | - | - |
| 1778010932 | 27.78° C | 35% | 1010.4 hPa | 0 mm | 1.79 m/s, 140° | - | - |
| 1778010629 | 27.78° C | 34% | 1010.3 hPa | 0 mm | 3.13 m/s, 133° | - | - |
* Rain latest hour (hover to see other rain measurements)
** Current wind speed in m/s (hover to see current wind gust speed)